Погода во Власихе

Россия / Алтайский край     53°17′51″N   83°35′04″E
темп.,
°C
ветер,
м/с
пор.,
м/с
влажн.,
%
обл.,
%
осадки,
мм/ч
давл.,
гПа
погр.,
м
23 апреля, пт
пт2301:00−1ссв511730 0.1 1041394
04:00−2ссв511775 0.0 1040383
07:00−1ссв511795 0.0 1041425
10:00+3ссв79545 0.0 10411055
13:00+6ссв8844100 0.0 10402244
16:00+6ссв6739100 0.0 10382092
19:00+5ссв5748100 0.0 10391590
22:00+2ссв5106699 0.0 1039370
24 апреля, сб
сб2401:000с4777100 0.0 1038218
04:00−1с4880100 0.0 1037256
07:000ссз4978100 0.0 1036345
10:00+4с685895 0.0 1035982
13:00+5с5755100 0.1 10341477
16:00+7с5646100 0.3 10331838
19:00+7с464499 0.3 10331209
22:00+3ссз226074 0.0 103422
25 апреля, вс
вс2501:00+2сз226573 0.0 103311
04:00+2зсз226797 0.0 103319
07:00+1сз11705 0.0 103410
10:00+6з01545 0.0 1034529
13:00+9з114149 0.0 10331679
16:00+10зсз113790 0.0 10311862
19:00+10всв113788 0.0 10311819
22:00+6вюв3757100 0.0 1031149
26 апреля, пн
пн2601:00+4юв3768100 0.0 1031194
04:00+3юв3570100 0.0 1030117
07:00+3юв3670100 0.0 1030145
10:00+6юв4652100 0.0 1030491
13:00+11юв45385 0.0 10271172
16:00+13ю45325 0.0 10251566
19:00+13ю364044 0.0 1024352
22:00+8ююв51153100 0.0 1023181
27 апреля, вт
вт2701:00+7ююв41164100 0.0 1021241
04:00+8ююз4889100 1.9 1020156
07:00+9зюз51286100 2.5 1021328
10:00+11зсз4758100 0.0 1022572
13:00+14з683399 0.0 10221958
16:00+15з5729100 0.0 10222118
19:00+14зюз3538100 0.0 1022226
22:00+11юз2244100 0.0 102215